{"data":{"norad_id":45246,"epoch":"2026-05-25T04:21:06.264000Z","epoch_age_seconds":55295,"freshness":"FRESH","line1":"1 45246U 20013B   26145.18132250 -.00000346  00000+0  00000+0 0  9999","line2":"2 45246   0.0151 258.1714 0000714  72.3737 105.7702  1.00271311 23046","mean_motion":1.00271311,"eccentricity":7.14e-5,"inclination_deg":0.0151,"raan_deg":258.1714,"arg_perigee_deg":72.3737,"mean_anomaly_deg":105.7702,"bstar":0,"rev_number":2304,"period_min":1436.1036927103,"perigee_km":35783.717269771,"apogee_km":35789.73841247,"semimajor_km":42164.864841121,"source":"CELESTRAK","updated_at":"2026-05-25T13:38:14.093276Z"}}